SL-16 DEB, 24300

Orbit data source: Space-Track

SL-16 DEB, 24300 is space debris in LEO originally from a launch on Wed, 04 Sep 1996 UTC launched from the Tyuratam Missile And Space Complex (TTMTR). Debris objects in space refer to the collection of defunct objects orbiting the Earth. Examples of debris include non-operational satellites, rocket bodies, and fragments generated from explosions, collisions, or faulty payload assembly.

Loading next visibility...
Identifier
24300, 1996-051D
Orbit
LEO
Last TLE update
13 hours ago
Origin
Manufacturer
Yuzhnoe
Mission
Spacecraft
Bus & Motor
SEP MOTOR COVER, Unknown motor
Mass
~0 kg wet, ~1 kg dry
Launch date (UTC)
1996-09-04 (29 years ago)
Launch vehicle
Unknown
Launch site
Tyuratam Missile And Space Complex (TTMTR)
Object type
Payload
Rocket body
Debris
Shape & HBR
Unknown
Radar Cross Section
Small (<0.1 m²)

Expand to show TLE details & history

TLE from 13 hours ago
0 SL-16 DEB
1 24300U 96051D   25129.31597601  .00000092  00000-0  12415-3 0  9998
2 24300  71.0275 184.1267 0196830 301.8210 131.7534 13.74652190437785
Epoch: 2025-05-09T07:35Z
Definitive object data (Epoch: 2025-05-09T07:35:00.327Z)
Latitude
66.22233°
Longitude
-106.07428°
Altitude
1,091.876 km
Speed
7.264 km/s
True Right ascension
15h 40m 12s
True Declination
66° 06' 03"
Sunlit
Object was in daylight at TLE epoch
Visualization TLE readout
Latitude
18.8592°
Longitude
15.2584°
Altitude
1,096.327 km
Speed
7.25 km/s
Apparent Right ascension
21h 03m 39s
Apparent Declination
-13° 14' 26"
Sunlit
Object is in daylight
Visualization observer readout
Local Sidereal Time
04:25:10
Azimuth
272.625° WNW
Elevation
-24.013°
Doppler factor
1
Orbital elements
Apogee altitude
1,125.724 km
Perigee altitude
836.03 km
Semi-major axis
7,359.014 km
Eccentricity
0.019683
Inclination
71.0275°
RAAN
184.1267°
Arg. of periapsis
301.821°
True anomaly
133.40868°
Mean anomaly
131.7534°
Eccentric anomaly
132.58375°
Mean motion
3.43806 °/min
BSTAR
0.00012415
Orbital period
104.71 mins
Loading maneuver chart data...
Loading SW <> Apogee altitude chart data...
Loading historical data...
Loading historical data...
Loading historical data...
Loading historical data...
Loading historical data...
Loading historical data...
Loading historical data...

SL-16 DEB Visibility forecast

Observer location: undefined°, undefined°

Span
Click to sort rows by Start time (UTC) header in descending order
Start Az.
Max El. time (UTC)
Max El. Az.
Max El.
End time (UTC)
End Az.
11 mins2025-05-10 04:17:04.298Z171.326° S2025-05-10 04:22:04.298Z104.354° ESE34.99°2025-05-10 04:28:04.298Z35.94° NE
10 mins2025-05-10 06:05:04.298Z249.998° W2025-05-10 06:09:04.298Z299.128° NW28.103°2025-05-10 06:15:04.298Z5.5° NNE
11 mins2025-05-10 13:28:04.298Z0.393° NNE2025-05-10 13:33:04.298Z55.636° ENE27.742°2025-05-10 13:39:04.298Z115.588° SE
12 mins2025-05-10 15:15:04.298Z323.855° NNW2025-05-10 15:20:04.298Z266.975° W38.182°2025-05-10 15:27:04.298Z180.197° SSW
|